Change the Weather History Date:

Friday, May 10, 2013

  Actual Average Record
Temperature  
Mean Temperature 70 °F -  
Max Temperature 84 °F 74 °F 91 °F (1963)
Min Temperature 55 °F 49 °F 29 °F (1983)
Cooling Degree Days 4    
Growing Degree Days 20 (Base 50)    
Moisture  
Dew Point 58 °F    
Average Humidity 64    
Maximum Humidity 96    
Minimum Humidity 40    
Precipitation  
Precipitation 0.00 in - - ()
Sea Level Pressure  
Sea Level Pressure 30.00 in    
Wind  
Wind Speed 3 mph (SSW)    
Max Wind Speed 15 mph    
Max Gust Speed 23 mph    
Visibility 10 miles    
Events      
Averages and records for this station are not official NWS values.
T = Trace of Precipitation, MM = Missing Value Source: NWS Daily Summary

Daily Weather History Graph

Daily Weather History Graph

Search for Another Location

Airport or City:

Trip Planner

Search our weather history database for the weather conditions in past years. The results will help you decide how hot, cold, wet, or windy it might be!

Date:

Astronomy

May. 10, 2013 Rise Set
Actual Time 6:16 AM EDT 8:13 PM EDT
Civil Twilight 5:47 AM EDT 8:41 PM EDT
Nautical Twilight 5:13 AM EDT 9:15 PM EDT
Astronomical Twilight 4:37 AM EDT 9:52 PM EDT
Moon 6:39 AM EDT (5/10) 9:00 PM EDT (5/10)
Length of Visible Light 14h 53m
Length of Day
13h 56m
New Moon, 0% of the Moon is Illuminated
May 10
New Moon
May 18
First Quarter
May 25
Full
May 31
Last Quarter
Jun 8
New

Hourly Weather History & Observations

Time (EDT) Temp. Heat Index Dew Point Humidity Pressure Visibility Wind Dir Wind Speed Gust Speed Precip Events Conditions
12:54 AM 60.1 °F - 55.9 °F 86% 30.06 in 10.0 mi Calm Calm - N/A   Clear
2:54 AM 57.9 °F - 55.0 °F 90% 30.05 in 10.0 mi Calm Calm - N/A   Clear
3:54 AM 55.9 °F - 54.0 °F 93% 30.05 in 10.0 mi Calm Calm - N/A   Clear
4:54 AM 55.0 °F - 54.0 °F 96% 30.04 in 10.0 mi Calm Calm - N/A   Partly Cloudy
5:54 AM 55.0 °F - 54.0 °F 96% 30.04 in 8.0 mi Calm Calm - N/A   Clear
6:54 AM 55.9 °F - 54.0 °F 93% 30.04 in 10.0 mi Calm Calm - N/A   Clear
9:54 AM 75.0 °F - 61.0 °F 62% 30.04 in 10.0 mi WSW 4.6 mph - N/A   Clear
10:54 AM 78.1 °F - 57.9 °F 50% 30.04 in 10.0 mi SSW 5.8 mph - N/A   Clear
11:54 AM 81.0 °F 81.3 °F 59.0 °F 47% 30.03 in 10.0 mi SSE 8.1 mph - N/A   Clear
1:54 PM 84.0 °F 83.3 °F 57.0 °F 40% 30.00 in 10.0 mi South 9.2 mph 17.3 mph N/A   Partly Cloudy
2:54 PM 84.9 °F 84.2 °F 57.9 °F 40% 29.99 in 10.0 mi SSW 15.0 mph 23.0 mph N/A   Scattered Clouds
3:54 PM 82.0 °F 81.7 °F 57.0 °F 42% 29.97 in 10.0 mi SSW 8.1 mph 16.1 mph N/A   Scattered Clouds
4:54 PM 82.9 °F 82.6 °F 57.9 °F 42% 29.96 in 10.0 mi SSW 6.9 mph 18.4 mph N/A   Clear
5:54 PM 82.0 °F 82.0 °F 57.9 °F 44% 29.94 in 10.0 mi South 8.1 mph 17.3 mph N/A   Clear
6:54 PM 79.0 °F - 59.0 °F 50% 29.94 in 10.0 mi SSW 5.8 mph - N/A   Clear
7:54 PM 75.9 °F - 60.1 °F 58% 29.94 in 10.0 mi SSE 3.5 mph - N/A   Clear
8:54 PM 73.9 °F - 59.0 °F 59% 29.95 in 10.0 mi South 3.5 mph - N/A   Clear
9:54 PM 73.0 °F - 60.1 °F 64% 29.96 in 10.0 mi South 3.5 mph - N/A   Clear
10:54 PM 72.0 °F - 60.1 °F 66% 29.95 in 10.0 mi Calm Calm - N/A   Clear
11:54 PM 71.1 °F - 60.1 °F 68% 29.93 in 10.0 mi Calm Calm - N/A   Scattered Clouds